Location: La Comballaz
(46.3780°N, 7.0817°E)
Time: 13:29:34
(UTC+00:00)

O/OREOS (USA 219) - Visible Passes

Search period start: 08 December 2022 00:00
Search period end: 18 December 2022 00:00
Orbit: 621 x 646 km, 72.0° (Epoch: 22 May)

Date Brightness Start Highest point End Pass type
(mag) Time Alt. Az. Time Alt. Az. Time Alt. Az.
08 Dec ? 03:54:25 34° E 03:54:25 34° E 03:57:49 10° NE visible
08 Dec ? 05:31:58 24° W 05:33:11 28° NW 05:37:04 10° N visible
09 Dec ? 04:17:29 35° NNE 04:17:29 35° NNE 04:20:08 10° NNE visible
09 Dec ? 05:55:01 15° WNW 05:55:38 16° NW 05:58:22 10° N visible
10 Dec ? 04:40:08 24° N 04:40:08 24° N 04:42:08 10° NNE visible
11 Dec ? 05:02:31 16° N 05:02:31 16° N 05:03:49 10° N visible
12 Dec ? 05:24:44 11° NNW 05:24:44 11° NNW 05:25:01 10° NNW visible
